Weather in Elblag

Poland     54°10′00″N   19°24′20″E
temp.,
°C
wind,
m/s
gust,
m/s
humid.,
%
clouds,
%
prec.,
mm/h
press.,
hPa
HPBL,
m
10 april, sat
sat1023:00+5ssw5117694 0.0 1012243
02:00+3ssw388666 0.0 1012176
05:00+2ssw239180 0.0 101248
08:00+5wsw3686100 0.0 1014241
11:00+7nw3479100 0.0 1015754
14:00+5nne2390100 1.2 1017514
17:00+5ne2381100 0.3 1018410
20:00+3ne2282100 0.3 101927
11 april, sun
sun1123:00+2e2278100 0.0 102028
02:00+2e2287100 0.0 102045
05:00+3e3795100 0.0 1020185
08:00+5ese51092100 0.0 1019369
11:00+10sse4881100 0.1 1018467
14:00+15sse5964100 0.1 1017954
17:00+15sse6105983 0.0 10151142
20:00+10sse477791 0.0 1016100
12 april, mon
mon1223:00+10sse3679100 0.0 1016115
02:00+9sse3882100 0.0 1016153
05:00+9se41082100 0.0 1015207
08:00+9se4986100 0.3 1015253
11:00+10sse388399 0.3 1015432
14:00+14s576899 0.5 10141029
17:00+12nw3480100 0.2 1015187
20:00+5nnw61090100 0.3 1018428
13 april, tue
tue1323:00+4nw5988100 0.1 1019568
02:00+4nw4885100 0.3 1020633
05:00+4nw4884100 0.1 1020686
08:00+4wnw6880100 0.3 1021785
11:00+2wnw4692100 1.2 1023485
14:00+4nnw3783100 2.1 1023746
17:00+4n578199 0.0 1023633
20:00+3n498397 0.0 1023435
14 april, wed
wed1423:00+3nw3685100 0.0 1023380
02:00+3nnw3685100 0.0 1021367
05:00+3nw2588100 0.0 1021241
08:00+4nw4684100 0.0 1020460
11:00+6nnw6873100 0.1 1020846
14:00+6nnw7969100 0.1 1021840
17:00+5nnw7974100 0.0 1021681
20:00+3nnw61081100 0.0 1021498